Time,B instrument,Bx,By,Bz,sigma B,Ion instrument,Status,Tp_par,Tp_perp,carrot,r_sun,clat,clong,earth_he_angle,n_p,vp_x,vp_y,vp_z,vth_p_par,vth_p_perp
1980-10-29 00:10:40,-1,nan,nan,nan,nan,1,3,nan,nan,1700,0.70376569,-5.7437639,10.014801,92.854645,nan,558.943,-2.19164,1.25269,nan,nan
1980-10-29 00:53:52,-1,nan,nan,nan,nan,1,3,nan,nan,1700,0.70346361,-5.7468872,9.6273193,92.865601,nan,587.997,5.30733,46.3744,nan,nan
1980-10-29 01:37:04,-1,nan,nan,nan,nan,1,3,nan,nan,1700,0.70315427,-5.750082,9.2440796,92.876877,nan,563.734,-9.23487,27.7069,nan,nan
1980-10-29 02:20:16,-1,nan,nan,nan,nan,1,3,nan,nan,1700,0.70285189,-5.7532053,8.8605957,92.887924,nan,585.217,-3.90336,24.6065,nan,nan
1980-10-29 03:03:28,-1,nan,nan,nan,nan,1,3,nan,nan,1700,0.70254928,-5.7563286,8.4771118,92.898987,nan,603.893,3.28093,-18.3215,nan,nan
1980-10-29 04:36:42,1,10.075,-4.225,-4.975,0.539096,1,1,321129.0,373343.0,1700,0.7018941,-5.7630796,7.6457214,92.923065,10.754,591.203,19.9163,-7.93355,72.8111,78.5077
1980-10-29 04:38:03,1,9.62,-2.88,-3.81,3.01266,1,1,188588.0,374420.0,1700,0.70188004,-5.7632246,7.6345215,92.923584,9.36726,559.777,-4.35721,18.5552,55.7975,78.6208
1980-10-29 04:39:24,1,9.58182,-4.44545,-4.24545,0.693536,1,1,194785.0,356712.0,1700,0.701873,-5.7632971,7.6230774,92.923843,9.07732,547.342,-40.2242,24.0459,56.7068,76.7391
1980-10-29 04:39:34,1,9.06,-4.95,-3.84,2.13853,1,1,212501.0,382367.0,1700,0.701873,-5.7632971,7.6230774,92.923843,8.57589,554.015,-22.3119,25.4252,59.2295,79.4507
1980-10-29 04:40:55,1,7.3,-8.83,-0.83,3.90413,1,1,232429.0,401785.0,1700,0.70186591,-5.7633696,7.6076965,92.924103,10.0701,572.183,12.9772,-15.0009,61.9445,81.4431
1980-10-29 04:42:16,1,9.25,-7.21,-3.04,0.873957,1,1,172664.0,343232.0,1700,0.70185184,-5.7635155,7.5964966,92.924622,9.11451,562.025,-17.3179,21.9416,53.3899,75.2751
1980-10-29 04:43:37,1,10.18,-5.93,-1.84,0.988989,1,1,200201.0,359704.0,1700,0.70184481,-5.763588,7.5850525,92.924881,10.0663,560.862,-33.921,11.4796,57.4898,77.0602
1980-10-29 04:44:58,1,6.85556,-10.5889,1.85556,2.1201,1,1,186068.0,359346.0,1700,0.70183772,-5.7636604,7.5735779,92.92514,9.2161,564.3,-0.846292,-3.37187,55.4235,77.0219
1980-10-29 04:46:19,1,2.39,-11.79,5.23,5.22761,1,1,361870.0,322078.0,1700,0.70182365,-5.7638054,7.5623779,92.925659,10.0837,565.567,-2.87659,29.3481,77.2919,72.9186
1980-10-29 04:47:40,1,5.98,-6.05,-9.7,0.884364,1,1,163616.0,381170.0,1700,0.70181662,-5.7638779,7.5509338,92.925919,8.65184,581.594,-13.5346,63.7118,51.9721,79.3263
1980-10-29 04:49:01,-1,nan,nan,nan,nan,1,4,nan,nan,1700,0.70180249,-5.7640238,7.5358276,92.926437,nan,nan,nan,nan,nan,nan
1980-10-29 04:50:22,1,2.9,-13.4909,5.86364,0.676525,1,1,169701.0,402520.0,1700,0.70179546,-5.7640963,7.524353,92.926697,8.4344,595.781,15.0871,-22.8482,52.9298,81.5176
1980-10-29 04:51:43,1,5.37273,-13.4364,3.64545,0.807608,1,1,139115.0,383844.0,1700,0.70178843,-5.7641687,7.5129089,92.926956,8.36723,575.807,6.2202,-6.25317,47.9231,79.6041
1980-10-29 04:53:04,1,5.09,-13.17,3.23,1.58717,1,1,192466.0,360644.0,1700,0.7017743,-5.7643137,7.501709,92.927475,8.03871,583.799,12.7923,-5.68513,56.3683,77.1609
1980-10-29 04:54:25,1,9.04,-10.04,0.52,2.59815,1,1,205101.0,337969.0,1700,0.70176727,-5.7643871,7.4902344,92.927734,8.32804,541.833,-31.6202,35.0661,58.1891,74.6958
1980-10-29 04:55:46,1,8.77,-11.03,-0.09,1.65139,1,1,126753.0,341864.0,1700,0.70176023,-5.7644596,7.4787903,92.927994,7.61541,559.251,-8.09114,11.0661,45.7443,75.125
1980-10-29 04:57:07,1,7.46,-10.26,-0.1,0.927793,1,1,146391.0,435397.0,1700,0.70174611,-5.7646046,7.4636841,92.928513,8.13451,574.32,13.5713,3.70736,49.1603,84.7814
1980-10-29 04:58:28,1,8.52,-9.32,-0.57,2.1889,1,1,219464.0,355066.0,1700,0.70173907,-5.764677,7.4522095,92.928772,6.62947,566.597,-1.95586,-5.29984,60.1921,76.5619
1980-10-29 04:59:49,1,10.3909,-5.30909,-3.82727,1.35311,1,1,177416.0,398042.0,1700,0.70173204,-5.7647495,7.4407654,92.929031,7.98738,552.013,-33.018,37.9439,54.1195,81.0629
1980-10-29 05:01:10,1,8.68,-1.41,-7.86,0.871149,1,1,132163.0,418574.0,1700,0.70171791,-5.7648954,7.4295654,92.929565,8.22883,565.384,-55.4066,67.1462,46.7103,83.1274
1980-10-29 05:02:31,1,7.28,1.55,-8.56,1.89908,1,1,168409.0,376504.0,1700,0.70171088,-5.7649679,7.4181213,92.929825,7.86088,578.192,-96.4492,71.5411,52.7279,78.8393
1980-10-29 05:03:52,1,7.43,-10.87,2.26,0.983158,1,1,199418.0,485358.0,1700,0.70170379,-5.7650404,7.4066467,92.930084,9.55588,573.708,4.77552,-13.7185,57.3772,89.5136
1980-10-29 05:05:13,1,8.25,-9.62,4.79,0.866603,1,1,153970.0,412946.0,1700,0.70168972,-5.7651854,7.3954468,92.930603,8.0558,563.897,-9.04778,-14.5321,50.4168,82.5666
1980-10-29 05:06:34,1,7.0,-10.72,6.17,0.556507,1,1,130131.0,330473.0,1700,0.70168263,-5.7652578,7.3800964,92.930862,7.10568,571.063,-9.87634,-23.5747,46.3499,73.8628
1980-10-29 05:07:55,1,6.44,-11.18,6.62,1.71044,1,1,133789.0,385036.0,1700,0.70167559,-5.7653303,7.3686218,92.931122,7.67717,577.697,-6.75912,-23.7742,46.9967,79.7276
1980-10-29 05:09:16,1,4.31,-13.47,4.36,0.919456,1,1,157575.0,363913.0,1700,0.70166153,-5.7654753,7.3574219,92.931641,7.42826,595.275,12.6109,-3.79544,51.0037,77.5098
1980-10-29 05:10:37,1,7.5,-10.1545,4.82727,1.80628,1,1,148073.0,409573.0,1700,0.70165443,-5.7655478,7.3459778,92.9319,8.22082,556.119,-15.3431,-7.25721,49.4419,82.2287
1980-10-29 05:11:58,1,10.93,-0.17,3.98,1.4212,1,1,167462.0,401779.0,1700,0.7016474,-5.7656202,7.3345032,92.932159,7.96666,538.352,-80.9133,12.2654,52.5794,81.4426
1980-10-29 05:13:19,1,7.46,-7.6,-5.38,2.15685,1,1,138302.0,407040.0,1700,0.70163327,-5.7657661,7.3233337,92.932693,8.68427,556.549,-37.2901,62.4537,47.7829,81.974
1980-10-29 05:14:40,1,5.26,-4.48,-8.1,3.07961,1,1,234321.0,427505.0,1700,0.70162624,-5.7658386,7.3079529,92.932953,7.96952,604.593,-66.6023,106.695,62.1962,84.0095
1980-10-29 05:16:01,1,8.99,-5.03,6.1,1.98771,1,1,304706.0,348582.0,1700,0.70161211,-5.7659836,7.2967529,92.933472,9.11978,547.756,-79.0471,-13.9216,70.9248,75.8596
1980-10-29 05:17:22,1,5.78,-6.67,8.57,3.87786,1,1,170673.0,344292.0,1700,0.70160508,-5.7660561,7.2853088,92.933731,8.21656,577.274,-15.4731,-29.7974,53.0811,75.3913
1980-10-29 05:18:43,1,10.22,-0.54,-0.54,1.74654,1,1,172420.0,388286.0,1700,0.70159799,-5.7661285,7.2738342,92.93399,8.1794,542.952,-81.2587,36.7155,53.3521,80.0633
1980-10-29 05:20:04,1,9.06,0.51,5.2,1.4026,1,1,149434.0,385768.0,1700,0.70158392,-5.7662735,7.2626343,92.934509,8.09669,548.501,-77.6739,-16.4712,49.6687,79.8033
1980-10-29 05:21:25,1,8.98,2.59,3.03,2.60895,1,1,182087.0,333478.0,1700,0.70157689,-5.766346,7.2511902,92.934769,7.9381,549.534,-92.6934,3.32776,54.8274,74.1979
1980-10-29 05:22:46,1,7.83,-7.06,5.9,1.52332,1,1,173824.0,353176.0,1700,0.7015698,-5.7664185,7.2358093,92.935028,7.37607,558.163,-22.5006,-6.88888,53.5689,76.3578
1980-10-29 05:24:07,1,6.97,-5.57,8.28,2.08753,1,1,193721.0,378505.0,1700,0.70155573,-5.7665644,7.2246399,92.935562,8.66342,555.623,-36.404,-19.4773,56.5518,79.0485
1980-10-29 06:24:15,-1,nan,nan,nan,nan,1,3,nan,nan,1700,0.70113236,-5.7709198,6.6895142,92.951233,nan,595.432,-9.43021,31.2322,nan,nan
1980-10-29 06:25:36,1,7.60909,-9.72727,-4.4,0.454364,1,1,127051.0,370917.0,1700,0.70112532,-5.7709923,6.6780701,92.951492,7.24059,594.73,-12.9041,47.8175,45.798,78.2521
1980-10-29 06:26:57,1,7.71,-9.54,-3.75,0.694118,1,1,135304.0,335111.0,1700,0.70111823,-5.7710648,6.6665955,92.951752,6.97654,591.654,-13.3144,48.1368,47.2622,74.3793
1980-10-29 06:28:18,1,8.50909,-9.19091,-1.71818,1.3643,1,1,135940.0,341331.0,1700,0.7011041,-5.7712097,6.6553955,92.952271,6.72782,601.295,-4.67524,53.987,47.373,75.0664
1980-10-29 06:29:40,1,8.66,-8.1,2.24,0.714703,1,1,143285.0,321833.0,1700,0.70109707,-5.7712822,6.6439514,92.95253,7.02832,575.737,-22.7624,17.0895,48.6361,72.8909
1980-10-29 06:31:01,1,9.28,-6.36,-0.44,2.68,1,1,136670.0,366571.0,1700,0.70108294,-5.7714281,6.6288452,92.953064,7.41817,566.832,-34.4127,30.2886,47.5002,77.7923
1980-10-29 06:32:22,1,7.9,-8.71,2.42,1.86239,1,1,138463.0,323814.0,1700,0.70107591,-5.7715006,6.6174011,92.953323,6.52856,583.901,-15.6369,-4.92966,47.8106,73.1148
1980-10-29 06:33:43,1,6.95,-5.13,-5.75,5.70939,1,1,199266.0,285256.0,1700,0.70106882,-5.7715731,6.6059265,92.953583,6.70139,579.267,-18.7352,12.6123,57.3554,68.6239
1980-10-29 06:35:03,1,7.35455,-8.98182,-4.07273,1.46366,1,1,146473.0,333985.0,1700,0.70105469,-5.771718,6.5947266,92.954102,6.65124,584.689,-13.9214,36.7545,49.1741,74.2543
1980-10-29 06:37:45,1,8.03,-7.96,3.38,2.31346,1,1,152839.0,442009.0,1700,0.70104057,-5.7718639,6.5718384,92.954636,6.07248,644.571,-54.7689,72.9521,50.2313,85.4227
1980-10-29 06:39:06,1,9.1,-7.51,1.8,1.10494,1,1,124706.0,359234.0,1700,0.7010265,-5.7720089,6.5606384,92.955154,6.90204,575.293,-24.4985,3.19597,45.3735,77.0099
1980-10-29 06:40:28,1,9.83,-5.51,0.87,0.76361,1,1,125120.0,325979.0,1700,0.70101941,-5.7720814,6.5452576,92.955414,7.21942,566.707,-44.8456,26.3301,45.4488,73.3588
1980-10-29 06:41:49,1,9.24,-7.19,0.43,1.13111,1,1,155967.0,329811.0,1700,0.70101237,-5.7721539,6.5338135,92.955673,6.20084,568.871,-33.9931,12.8854,50.7427,73.7888
1980-10-29 06:43:10,1,9.23,-5.94,-1.28,2.43764,1,1,120184.0,322110.0,1700,0.70099825,-5.7722998,6.5226135,92.956207,6.57662,571.267,-38.4646,23.0837,44.5431,72.9223
1980-10-29 06:44:31,1,9.09,-5.37,-2.78,0.792843,1,1,131159.0,327034.0,1700,0.70099115,-5.7723722,6.5111694,92.956467,6.94015,577.85,-37.6743,41.2559,46.5325,73.4775
1980-10-29 06:45:52,1,9.5,-4.61,-1.1,0.940691,1,1,115492.0,329596.0,1700,0.70098412,-5.7724447,6.4996948,92.956726,6.67609,570.212,-36.6288,28.5056,43.6651,73.7647
1980-10-29 06:47:13,1,9.36,-5.1,-3.3,1.11014,1,1,123313.0,299511.0,1700,0.70096999,-5.7725897,6.4884949,92.957245,5.42754,571.971,-33.0149,40.7868,45.1194,70.3176
1980-10-29 06:48:34,1,7.71,-5.64,-6.15,0.975602,1,1,111512.0,324212.0,1700,0.70096296,-5.7726631,6.4731445,92.95752,6.04264,591.88,-28.5385,64.3378,42.9061,73.1598
1980-10-29 06:49:55,1,8.81,-4.04,-5.21,1.13499,1,1,121689.0,334917.0,1700,0.70095587,-5.7727356,6.4617004,92.957779,6.1621,574.09,-45.508,48.1323,44.8213,74.3578
1980-10-29 06:51:16,1,8.54,-8.19,-0.14,1.28907,1,1,121757.0,284875.0,1700,0.70094174,-5.7728806,6.4505005,92.958298,5.98128,576.406,-21.4634,11.4271,44.8338,68.578
1980-10-29 06:52:37,1,7.81,-9.11,0.45,1.17741,1,1,148842.0,328615.0,1700,0.70093471,-5.772953,6.4390259,92.958557,6.7111,578.215,-14.3375,19.0112,49.5702,73.6549
1980-10-29 06:53:58,1,8.65,-6.77,-2.1,0.852408,1,1,120194.0,319729.0,1700,0.70092762,-5.7730255,6.4275818,92.958817,6.08653,581.285,-21.8471,36.6464,44.5451,72.6523
1980-10-29 06:55:19,1,2.59,-11.62,5.22,1.62422,1,1,99185.9,291744.0,1700,0.70091355,-5.7731714,6.4163818,92.959351,6.09962,630.244,11.0048,-33.5773,40.4653,69.4
1980-10-29 06:56:40,1,7.94,-7.87,-2.63,1.73338,1,1,102670.0,311190.0,1700,0.70090646,-5.7732439,6.4010315,92.95961,6.15195,585.563,-12.0234,29.6167,41.1698,71.6755
1980-10-29 06:58:01,1,9.11,-4.68,-3.06,0.840773,1,1,149476.0,278086.0,1700,0.70089233,-5.7733889,6.3898315,92.960129,6.07513,575.504,-32.682,39.7974,49.6756,67.756
1980-10-29 06:59:22,1,6.15,-6.27,2.47,6.32319,1,1,227424.0,259108.0,1700,0.7008853,-5.7734613,6.3783569,92.960388,6.33058,588.492,-25.4858,50.0102,61.274,65.403
1980-10-29 07:00:43,1,2.85,-6.55,9.28,1.69487,1,1,155523.0,298212.0,1700,0.7008782,-5.7735348,6.3669128,92.960663,6.33933,604.248,-17.0279,-42.3026,50.6705,70.165
1980-10-29 07:02:04,1,3.46364,-6.64545,8.99091,1.51243,1,1,150442.0,293131.0,1700,0.70086408,-5.7736797,6.3557129,92.961182,6.06274,612.544,-12.7069,-50.3647,49.8359,69.5647
1980-10-29 07:03:25,1,5.41,-3.46,8.05,3.13461,1,1,169047.0,292988.0,1700,0.70085704,-5.7737522,6.3442688,92.961441,6.04304,596.178,-4.35625,-23.9035,52.8277,69.5477
1980-10-29 07:04:46,1,6.97,-8.01,0.8,2.65236,1,1,169064.0,322325.0,1700,0.70084995,-5.7738247,6.3288879,92.9617,6.43155,591.734,-4.82684,32.321,52.8304,72.9466
1980-10-29 07:06:07,1,8.09,-4.33,3.43,2.20932,1,1,288598.0,280442.0,1700,0.70083582,-5.7739697,6.3177185,92.962234,6.99242,570.261,-42.5441,29.3666,69.0247,68.0423
1980-10-29 07:07:28,1,5.96,-8.72,-1.27,1.73784,1,1,136748.0,328471.0,1700,0.70082879,-5.7740421,6.3062439,92.962494,6.36374,596.377,0.651811,20.9104,47.5137,73.6388
1980-10-29 07:08:49,1,5.22,-5.17,7.38,2.77476,1,1,207041.0,305997.0,1700,0.7008217,-5.7741146,6.2947998,92.962753,6.60732,593.191,-44.1753,-41.7152,58.4636,71.075
1980-10-29 07:12:52,1,8.14286,-6.88571,-0.357143,2.409,1,1,184256.0,260834.0,1700,0.70231718,-5.9495387,5.9683228,92.675354,4.39387,617.14,13.3388,-21.41,55.153,65.6206
1980-10-29 07:15:24,1,6.90909,-8.72727,-1.10909,1.78275,1,1,272465.0,268382.0,1700,0.70077229,-5.7746229,6.2341309,92.9646,6.11437,581.079,-70.6541,23.786,67.0676,66.5632
1980-10-29 07:15:25,1,7.05,-8.53,-1.2,1.6609,1,1,101325.0,395143.0,1700,0.70077932,-5.7745504,6.2338867,92.96434,6.26156,598.034,2.27637,22.1464,40.8992,80.7672
1980-10-29 07:15:34,1,7.41818,-7.95455,-1.57273,1.54994,1,1,120934.0,307496.0,1700,0.70077223,-5.7746229,6.2341309,92.9646,5.21864,590.356,-8.10408,26.4273,44.6819,71.2489
1980-10-29 07:16:55,1,7.26364,-8.00909,-2.96364,0.899495,1,1,138601.0,367378.0,1700,0.70076519,-5.7746954,6.2226868,92.964859,5.72806,602.814,-0.799142,53.3933,47.8345,77.878
1980-10-29 07:18:16,1,6.4,-8.98182,-2.35455,1.24913,1,1,128163.0,323536.0,1700,0.70075107,-5.7748404,6.2114868,92.965393,5.55452,599.551,-4.02948,37.2822,45.998,73.0835
1980-10-29 07:19:37,1,8.03,-5.81,-3.67,0.533948,1,1,152869.0,361966.0,1700,0.70074397,-5.7749128,6.2000427,92.965652,5.87333,593.622,-30.9246,60.4354,50.2364,77.3022
1980-10-29 07:20:58,1,7.0,-8.7,-1.82,1.30981,1,1,118353.0,323215.0,1700,0.70073694,-5.7749853,6.1846619,92.965912,5.68767,602.989,1.38666,26.0759,44.2026,73.0473
1980-10-29 07:22:19,1,8.11,-6.56,-3.29,1.06499,1,1,167433.0,361064.0,1700,0.70072281,-5.7751303,6.1734924,92.966446,6.15155,589.499,-23.2844,47.9107,52.5749,77.2058
1980-10-29 07:23:40,1,8.66,-5.33,-3.22,1.17478,1,1,153162.0,328577.0,1700,0.70071572,-5.7752028,6.1620178,92.966705,5.98931,589.075,-35.8023,53.8204,50.2844,73.6507
1980-10-29 07:25:01,1,7.57,-7.58,-2.16,2.60578,1,1,100011.0,317747.0,1700,0.70070159,-5.7753487,6.1508179,92.967224,4.9887,602.921,9.46635,34.9647,40.6333,72.4266
1980-10-29 07:26:22,1,8.73,-5.62,-2.63,0.975602,1,1,115928.0,354247.0,1700,0.70069456,-5.7754211,6.1393738,92.967499,5.57765,586.347,-24.7541,46.0856,43.7474,76.4735
1980-10-29 07:27:43,1,9.05,-5.82,-1.26,0.952103,1,1,140468.0,342831.0,1700,0.70068747,-5.7754936,6.1279297,92.967758,5.80988,581.486,-32.4501,38.5904,48.1556,75.2312
1980-10-29 07:29:04,1,9.23,-4.91,-0.78,0.903659,1,1,115349.0,307422.0,1700,0.70067334,-5.7756386,6.1128235,92.968277,5.03004,570.528,-41.2882,23.5535,43.6379,71.2402
1980-10-29 07:30:25,1,6.46,-9.52,-0.4,0.63561,1,1,116923.0,346829.0,1700,0.70066631,-5.7757111,6.1013794,92.968552,5.23463,608.721,13.8239,25.5223,43.9347,75.6685
1980-10-29 07:31:46,1,3.27,-9.7,-5.16,2.48646,1,1,174953.0,344147.0,1700,0.70065922,-5.7757835,6.0899048,92.968811,5.32479,621.195,5.4997,59.0533,53.7425,75.3754
1980-10-29 07:33:07,1,7.33,-8.22,-2.92,0.774145,1,1,116523.0,354943.0,1700,0.70064509,-5.7759285,6.0787048,92.96933,5.06414,594.891,-2.05136,45.9618,43.8596,76.5486
1980-10-29 07:34:28,1,8.52,-6.57,-1.9,0.940053,1,1,116909.0,316889.0,1700,0.700638,-5.776001,6.0672607,92.969589,4.59942,581.898,-22.7787,33.1892,43.932,72.3289
1980-10-29 07:35:49,1,6.87,-8.77,-2.14,1.46171,1,1,140126.0,335155.0,1700,0.70063096,-5.7760735,6.0558167,92.969864,4.85428,597.718,-0.0380025,47.8988,48.0969,74.3842
1980-10-29 07:37:10,1,8.24,-7.33,-1.54,0.63,1,1,107869.0,270877.0,1700,0.70061684,-5.7762194,6.0407104,92.970383,4.50407,581.727,-17.6107,36.9466,42.1994,66.8719
1980-10-29 07:38:31,1,8.36,-7.09,-1.38,0.575239,1,1,121051.0,321874.0,1700,0.70060974,-5.7762918,6.0292358,92.970642,4.8303,584.409,-14.4473,34.9753,44.7036,72.8955
1980-10-29 07:39:52,1,7.15,-8.61,-0.34,0.762758,1,1,121234.0,316090.0,1700,0.70060271,-5.7763643,6.0177917,92.970917,4.93636,594.196,5.01326,12.3608,44.7373,72.2376
1980-10-29 07:41:13,-1,nan,nan,nan,nan,1,3,nan,nan,1700,0.70058858,-5.7765093,6.0065918,92.971436,nan,585.837,-20.9353,38.9418,nan,nan
1980-10-29 07:42:34,-1,nan,nan,nan,nan,1,3,nan,nan,1700,0.70058149,-5.7765818,5.9951477,92.971695,nan,593.241,-4.89473,25.5435,nan,nan
1980-10-29 07:46:37,-1,nan,nan,nan,nan,1,3,nan,nan,1700,0.70055324,-5.7768717,5.9571228,92.972748,nan,577.505,-42.7314,44.0381,nan,nan
1980-10-29 07:47:58,-1,nan,nan,nan,nan,1,3,nan,nan,1700,0.70054615,-5.7769442,5.9456787,92.973007,nan,577.141,-34.9226,19.4791,nan,nan
1980-10-29 07:49:19,-1,nan,nan,nan,nan,1,3,nan,nan,1700,0.70053202,-5.7770901,5.9344788,92.973541,nan,578.193,-35.9146,21.5753,nan,nan
1980-10-29 07:50:40,-1,nan,nan,nan,nan,1,3,nan,nan,1700,0.70052499,-5.7771626,5.9230347,92.973801,nan,578.702,-31.1188,3.83601,nan,nan
1980-10-29 07:52:01,1,6.49,-7.45,1.57,1.97775,1,1,153201.0,334350.0,1700,0.70051086,-5.7773075,5.9118347,92.974335,4.6564,588.388,-7.93622,-4.00759,50.2908,74.2948
1980-10-29 07:53:22,1,5.72,-8.58,-0.76,0.713863,1,1,167411.0,266640.0,1700,0.70050377,-5.77738,5.9003906,92.974594,4.36,581.933,-12.2885,21.3172,52.5714,66.3468
1980-10-29 07:54:43,1,7.35,-5.4,1.18,2.25834,1,1,305148.0,321101.0,1700,0.70049673,-5.7774525,5.8850098,92.974854,5.13772,583.029,-14.449,35.7261,70.9762,72.808
1980-10-29 07:56:04,1,7.47,-5.33,2.2,1.00707,1,1,134606.0,269372.0,1700,0.70048261,-5.7775974,5.8738403,92.975388,4.16581,570.848,-29.0969,-3.92996,47.14,66.6859
1980-10-29 07:57:25,1,7.48,-5.42,-0.36,1.13384,1,1,201489.0,293702.0,1700,0.70047551,-5.7776699,5.8623657,92.975647,4.60873,572.338,-29.0516,38.1197,57.6745,69.6324
1980-10-29 07:58:46,1,6.96,-6.63,1.36,0.678896,1,1,145608.0,264328.0,1700,0.70046848,-5.7777424,5.8509216,92.975906,4.17274,572.326,-22.0509,11.5037,49.0288,66.0586
1980-10-29 08:00:07,1,5.65,-7.18,3.13,2.97728,1,1,155555.0,303945.0,1700,0.70045435,-5.7778883,5.8397217,92.97644,4.22432,591.529,-8.60231,-19.339,50.6757,70.8363
1980-10-29 08:01:28,1,6.02,-7.56,1.57,0.830723,1,1,150945.0,231047.0,1700,0.70044726,-5.7779608,5.8282776,92.9767,4.02132,577.795,-16.2374,26.0411,49.9192,61.7601
1980-10-29 08:02:49,1,6.01,-8.18,0.45,0.637966,1,1,189195.0,244395.0,1700,0.70044017,-5.7780333,5.8128967,92.976959,3.9101,582.672,-9.18311,39.4566,55.8872,63.519
1980-10-29 08:04:10,1,5.87,-7.77,0.88,1.08526,1,1,156870.0,200411.0,1700,0.70042604,-5.7781782,5.8017273,92.977493,3.92773,583.557,-8.98106,15.9527,50.8895,57.52
1980-10-29 08:05:31,1,5.66,-7.05,2.02,0.87892,1,1,283396.0,261228.0,1700,0.70041895,-5.7782507,5.7902527,92.977753,4.70258,585.663,-13.5608,18.726,68.3998,65.6701
1980-10-29 08:06:52,1,4.87,-7.18,2.23,1.95954,1,1,274734.0,234517.0,1700,0.70041192,-5.7783232,5.7788086,92.978012,4.26523,581.868,-10.4475,39.188,67.3464,62.2222
1980-10-29 08:08:13,1,2.82,-5.65,6.53,1.91316,1,1,174254.0,236515.0,1700,0.70039773,-5.7784681,5.7676086,92.978546,4.19055,586.463,-37.3074,-25.5938,53.6351,62.4867
1980-10-29 08:09:34,1,3.62,-5.51,6.76,1.7114,1,1,225396.0,243607.0,1700,0.7003907,-5.7785406,5.7561646,92.978806,3.88957,572.694,-38.0255,3.34616,61.0002,63.4165
1980-10-29 08:10:55,1,1.28,-5.12,8.36,0.66,1,1,228993.0,224209.0,1700,0.7003836,-5.778614,5.7408142,92.97908,4.06381,596.261,-36.2169,-23.4428,61.485,60.8394
1980-10-29 08:12:16,1,2.44545,-5.79091,6.92727,1.22022,1,1,409425.0,197330.0,1700,0.70036948,-5.778759,5.7296143,92.979599,4.08956,607.811,-37.2462,-21.0501,82.2139,57.0762
1980-10-29 08:13:37,1,-2.52,-3.1,8.89,1.51806,1,1,226770.0,228961.0,1700,0.70036238,-5.7788315,5.7181702,92.979874,4.48902,651.583,-54.9309,-38.8664,61.1858,61.4807
1980-10-29 08:14:58,1,1.8,-5.72727,7.62727,1.0047,1,1,240426.0,213719.0,1700,0.70035535,-5.778904,5.7066956,92.980133,3.9166,608.927,-40.053,-30.7668,63.0011,59.3991
1980-10-29 08:16:19,1,3.01,-6.35,6.58,1.20789,1,1,220068.0,234132.0,1700,0.70034117,-5.7790489,5.6955261,92.980667,4.14508,609.039,-19.8606,-21.5403,60.2749,62.1711
1980-10-29 08:17:40,1,2.77,-6.09,6.51,1.22061,1,1,252167.0,256018.0,1700,0.70033413,-5.7791214,5.6840515,92.980927,3.9336,586.157,-28.7345,-1.7856,64.5212,65.0119
1980-10-29 08:19:01,1,-1.31818,-6.4,7.29091,2.3426,1,1,294696.0,201080.0,1700,0.70032001,-5.7792664,5.6689758,92.981461,3.73015,620.448,-32.3409,-30.7083,69.7502,57.6159
1980-10-29 08:20:22,1,0.781818,-6.03636,7.45455,1.1681,1,1,555063.0,245850.0,1700,0.70031291,-5.7793398,5.6575012,92.98172,4.47285,617.21,-43.5057,-6.11006,95.7258,63.7079
1980-10-29 08:21:43,1,3.51818,-6.4,4.10909,1.67455,1,1,441104.0,268921.0,1700,0.70030582,-5.7794123,5.6460571,92.981979,4.92226,591.956,-24.4954,5.83091,85.3352,66.6301
1980-10-29 08:23:04,1,-1.57,-3.46,7.54,3.85395,1,1,344858.0,353009.0,1700,0.70029169,-5.7795572,5.6348572,92.982513,5.06391,611.308,-28.2553,-0.10846,75.4532,76.3397
1980-10-29 08:24:25,1,0.763636,-3.48182,8.48182,1.52906,1,1,586295.0,328411.0,1700,0.7002846,-5.7796297,5.6234131,92.982773,5.92933,619.702,-54.0407,-12.9949,98.3821,73.6321
1980-10-29 08:25:46,1,-2.92,-1.92,9.58,1.78852,1,1,402030.0,411134.0,1700,0.70027757,-5.7797022,5.6119385,92.983032,6.43565,635.375,-62.823,-25.0292,81.468,82.3852
1980-10-29 08:27:07,1,-3.30909,-0.409091,9.63636,0.84011,1,1,163427.0,277273.0,1700,0.70026338,-5.7798471,5.5968628,92.983566,4.91246,633.931,-56.2018,-37.4063,51.9421,67.6568
1980-10-29 08:28:28,1,-3.22727,-0.709091,8.02727,3.39268,1,1,358703.0,247360.0,1700,0.70025635,-5.7799196,5.5853882,92.983826,4.98507,649.432,-69.6244,-30.1757,76.953,63.9032
1980-10-29 08:29:49,1,4.22,-8.87,1.75,0.800125,1,1,417622.0,295044.0,1700,0.70024925,-5.7799921,5.5739441,92.9841,4.68019,588.225,-17.5555,28.2093,83.0328,69.7913
1980-10-29 08:31:10,1,4.47,-8.06,3.39,1.07861,1,1,315077.0,241399.0,1700,0.70023513,-5.780138,5.5627441,92.984619,4.30744,588.806,-8.61357,28.4911,72.1218,63.1285
1980-10-29 08:32:31,1,6.91,-5.17,0.11,0.829397,1,1,369819.0,286948.0,1700,0.70022804,-5.7802105,5.5513,92.984894,4.54387,577.47,-36.0671,51.9478,78.1362,68.8271
1980-10-29 08:33:52,-1,nan,nan,nan,nan,1,4,nan,nan,1700,0.700221,-5.780283,5.539856,92.985153,nan,nan,nan,nan,nan,nan
1980-10-29 08:35:13,-1,nan,nan,nan,nan,1,4,nan,nan,1700,0.70020682,-5.7804279,5.5247498,92.985687,nan,nan,nan,nan,nan,nan
1980-10-29 08:36:34,1,7.61,-0.69,1.18,0.489285,1,1,484319.0,273024.0,1700,0.70019978,-5.7805004,5.5133057,92.985947,5.22533,578.954,-64.9077,35.8802,89.4177,67.1364
1980-10-29 08:37:55,1,6.84,-0.52,3.58,1.12588,1,1,354347.0,325275.0,1700,0.70019269,-5.7805729,5.5018311,92.986206,4.83333,576.33,-74.5313,18.1385,76.4843,73.2796
1980-10-29 08:39:16,1,6.67,0.27,2.71,0.90835,1,1,370631.0,268220.0,1700,0.70017856,-5.7807178,5.4906616,92.98674,4.47041,576.667,-73.7465,23.0463,78.2219,66.5431
1980-10-29 08:40:37,1,4.78,-0.26,5.14,1.29089,1,1,349345.0,271494.0,1700,0.70017147,-5.7807913,5.479187,92.987,4.81968,594.743,-67.9953,1.63673,75.9426,66.9481
1980-10-29 08:41:58,1,2.78333,0.591667,0.00833333,0.84533,1,1,944881.0,444524.0,1700,0.70016438,-5.7808638,5.4677429,92.987274,8.42293,593.246,-76.5345,45.9384,124.895,85.6654
1980-10-29 08:43:19,1,5.68,1.32,3.61,0.629365,1,1,476064.0,319586.0,1700,0.70015025,-5.7810087,5.4526367,92.987793,5.63242,587.283,-89.0484,30.1236,88.6524,72.6359
1980-10-29 08:44:40,1,5.94,2.1,2.97,0.338378,1,1,453580.0,309144.0,1700,0.70014322,-5.7810812,5.4411926,92.988052,5.66137,588.481,-90.2106,22.8983,86.5336,71.4395
1980-10-29 08:46:01,1,6.46,1.56,2.59,0.951683,1,1,644541.0,281437.0,1700,0.70012903,-5.7812262,5.4299927,92.988586,6.49218,584.827,-90.3328,21.2404,103.153,68.1629
1980-10-29 08:47:22,1,5.18,1.66,3.54,1.97393,1,1,496134.0,385247.0,1700,0.700122,-5.7812986,5.4185486,92.988846,5.8658,595.362,-83.6994,41.5307,90.5019,79.7494
1980-10-29 08:48:43,1,4.62,0.24,-2.22,1.64669,1,1,544667.0,443515.0,1700,0.70011491,-5.7813711,5.4071045,92.98912,7.77465,607.703,-77.9635,40.4602,94.8251,85.5681
1980-10-29 08:50:04,1,5.61818,1.1,-3.15455,0.467453,1,1,368183.0,329403.0,1700,0.70010078,-5.781517,5.3959045,92.989639,5.69391,614.482,-75.4484,42.3554,77.9632,73.7432